Notices

What's New in latest Release from April 7th, 2021:

- Updated Glossary, including Speed of Maximum Gust, and Total Hourly Precipitation

- Updated national and regional climate services offices contacts and prices information

- Addition of station inventory lists for 1981-2010, 1971-2000, and 1961-1990 Normals.

If you haven't already, please take our survey and provide feedback about our website: https://eccc.sondage-survey.ca/f/LanguageSelection.aspx?s=442ca660-fcf1-47c0-95a9-59707d6fd709

Hourly Data Report for April 11, 2012

MIRAMICHI RCS
NEW BRUNSWICK

47°00'34.000" N
65°27'54.000" W
33.00 m
8100989
71744
ACQ

Download Data

Hourly Data (April 2012)
Hourly Data Report for April 11, 2012
TIME
LST
Temp Definition
°C
Dew Point Definition
°C
Rel Hum Definition
%
Precip. Amount Definition
mm

Wind Dir Definition
10's deg

Wind Spd Definition
km/h
Visibility Definition
km
Stn Press Definition
kPa
Hmdx Definition


Wind Chill Definition


Weather Definition


00:00 0.6 -0.1 95     0   100.21     LegendNANA
01:00 0.0 -0.6 96     0   100.25     LegendNANA
02:00 -0.3 -0.9 96     0   100.27     LegendNANA
03:00 -0.8 -1.3 96   31 2   100.26   -1 LegendNANA
04:00 -0.4 -0.9 96   25 6   100.32   -2 LegendNANA
05:00 -0.6 -1.1 96   30 4   100.35   -2 LegendNANA
06:00 -0.3 -0.8 96   15 2   100.45   -1 LegendNANA
07:00 0.2 -0.3 96     0   100.54     LegendNANA
08:00 1.7 1.2 96   7 2   100.58     LegendNANA
09:00 3.2 2.5 95   35 4   100.66     LegendNANA
10:00 4.1 2.7 91   25 2   100.76     LegendNANA
11:00 4.8 3.0 88     0   100.79     LegendNANA
12:00 5.9 3.7 86   4 4   100.83     LegendNANA
13:00 7.2 4.1 81   10 7   100.81     LegendNANA
14:00 8.6 4.3 74   4 6   100.75     LegendNANA
15:00 10.2 4.2 66   7 7   100.74     LegendNANA
16:00 10.4 3.1 61   6 9   100.76     LegendNANA
17:00 10.0 4.6 69   4 13   100.78     LegendNANA
18:00 6.6 3.2 79   3 11   100.89     LegendNANA
19:00 3.2 1.5 89   6 11   100.92     LegendNANA
20:00 1.8 1.0 94   5 9   100.95     LegendNANA
21:00 1.7 1.1 96   5 13   100.94     LegendNANA
22:00 1.3 0.7 96   6 13   100.98     LegendNANA
23:00 1.0 0.5 96   5 15   100.96     LegendNANA

Notes on Data Quality.

Legend

  • E = Estimated
  • M = Missing
  • NA = Not Available*
  • [empty] = Indicates an unobserved value
Date modified: